Temperature
16 16 16 16 16 16 17 16 16 16 16 16 16 16 16 16 16 15 15 15 15 15 15 15 15 15 15 15 15 15 15 15 15 15 15 15 15 15 15 15 15 15 15
16 16 16 16 16 16 16 16 16 16 16 16 16 15 15 15 15 15 15 15 15 15 15 15 15 15 15 15 15 15 15 15 15 15 15 15 14 15 15 15 15 14 14
16 16 16 16 16 16 16 16 16 16 16 16 15 15 15 15 15 15 15 15 15 15 15 15 15 15 15 15 15 15 15 15 15 14 14 14 14 14 14 14 14 14 14
16 16 16 16 16 16 16 16 16 16 16 15 15 15 15 15 15 15 15 15 15 15 15 15 15 15 15 15 15 15 15 14 14 14 14 14 14 14 14 14 14 14 14
15 15 15 15 16 16 16 16 16 16 15 15 15 15 15 15 15 15 15 15 15 15 15 15 15 15 14 14 14 14 14 14 14 14 14 14 14 14 14 14 13 13 13
15 15 15 15 15 16 16 16 16 16 15 15 15 15 15 15 15 15 15 15 15 15 15 15 14 14 14 14 14 14 14 14 14 14 14 14 13 13 13 13 13 13 13
15 15 15 15 15 15 15 16 16 15 15 15 15 15 15 15 15 15 15 15 15 15 14 14 14 14 14 14 14 14 13 13 13 13 13 13 13 13 13 13 13 13 13
15 15 15 15 15 15 15 15 15 15 15 15 15 15 15 15 15 15 15 14 14 14 14 14 14 14 14 14 13 13 13 13 13 13 13 13 13 13 13 13 12 12 12
14 14 14 14 14 15 15 15 15 15 15 15 15 15 15 14 14 14 14 14 14 14 14 14 14 13 13 13 13 13 13 13 13 13 13 12 12 12 12 12 12 12 12
14 14 14 14 14 14 14 14 15 14 14 14 14 14 14 14 14 14 14 14 14 14 14 14 13 13 13 13 13 13 13 13 13 12 12 12 12 12 12 12 12 12 12
13 13 13 14 14 14 14 14 14 14 14 14 14 14 14 14 14 14 14 14 14 14 13 13 13 13 13 13 13 13 13 12 12 12 12 12 12 12 12 12 12 12 12
13 13 13 13 13 13 13 14 14 14 14 14 14 14 14 14 14 14 13 13 13 13 13 13 13 13 13 13 13 12 12 12 12 12 12 12 12 12 12 12 12 12 12
12 12 13 13 13 13 13 13 13 13 13 13 13 13 13 13 13 13 13 13 13 13 13 13 13 13 12 12 12 12 12 12 12 12 12 11 11 12 12 12 12 11 11
12 12 12 12 13 13 13 13 13 13 13 13 13 13 13 13 13 13 13 13 13 13 13 12 12 12 12 12 12 12 12 12 12 12 12 11 11 11 11 11 11 11 11
12 12 12 12 12 12 12 13 13 13 13 13 13 13 13 13 13 13 12 12 12 12 12 12 12 12 12 12 12 11 11 12 12 11 11 11 11 11 11 11 11 11 11
11 11 12 12 12 12 12 12 12 12 12 12 12 12 12 12 12 12 12 12 12 12 12 12 12 12 12 12 11 11 11 11 11 11 11 11 11 11 11 11 11 11 11
11 11 11 11 11 11 11 12 12 12 12 12 12 12 12 12 12 12 12 12 12 12 12 11 11 11 11 11 11 11 11 11 11 11 11 11 11 11 10 10 10 10 10
11 11 11 11 11 11 11 11 11 11 11 11 11 11 11 11 11 12 12 12 11 11 11 11 11 11 11 11 11 11 10 10 10 10 10 10 10 10 10 10 10 10 10
10 10 10 10 10 10 10 10 10 11 11 11 11 11 11 11 11 11 11 11 11 11 11 11 11 10 10 10 10 10 10 10 10 9 9 10 10 10 10 10 10 10 10
10 10 10 10 10 10 10 10 10 10 10 10 10 10 11 11 11 11 11 11 10 10 10 10 10 10 10 10 10 10 9 9 9 9 9 9 9 9 9 9 9 9 9
9 9 9 9 9 9 9 9 9 10 10 9 9 10 10 10 10 10 10 10 10 10 10 10 10 10 9 9 9 9 9 9 9 8 8 9 9 9 9 9 9 9 9
9 9 9 9 9 9 9 9 9 9 9 9 9 9 9 10 10 10 10 10 9 9 9 9 9 9 9 9 8 8 8 8 8 8 8 8 8 8 8 8 8 8 8
9 9 8 8 8 8 8 8 8 8 9 9 9 9 9 9 9 9 9 9 9 9 9 9 9 8 8 8 8 7 7 7 7 7 7 7 8 8 8 8 8 8 8
8 8 8 8 8 8 8 8 8 8 8 8 8 8 8 8 8 8 8 8 8 8 8 8 8 8 8 8 7 7 7 7 6 6 6 7 7 7 7 7 7 7 7
7 7 7 7 7 7 7 7 7 7 7 7 7 8 8 8 8 8 8 8 8 8 8 8 8 7 7 7 7 7 6 6 6 6 6 6 6 6 6 6 6 6 6
7 7 7 7 7 7 7 7 7 7 7 7 7 7 7 7 7 7 7 7 7 7 7 7 7 7 7 7 6 6 6 5 5 5 5 5 5 5 6 6 6 6 6
Wind_Speed
2 3 7 7 8 9 10 11 12 12 12 13 14 14 14 14 14 14 14 14 13 14 14 14 14 15 15 15 15 15 15 15 15 15 16 15 15 16 16 15 15 14 16
3 5 7 8 8 9 9 11 12 12 13 13 13 13 14 14 14 14 14 14 13 13 13 13 14 14 14 14 14 14 14 14 14 14 14 14 14 15 15 14 14 13 15
4 5 7 8 8 9 9 11 12 12 13 13 13 13 13 14 13 13 13 13 13 12 13 13 13 13 13 13 13 13 13 13 13 13 12 11 12 13 14 13 13 14 14
5 5 7 8 8 9 10 10 12 12 12 12 12 13 13 13 13 13 12 12 12 12 13 13 12 12 12 11 12 12 12 12 12 11 9 9 9 12 13 12 12 13 13
5 5 7 8 8 9 10 10 11 11 12 12 12 12 13 13 12 12 12 12 12 12 12 12 11 11 11 10 10 10 11 11 11 10 9 8 8 11 12 12 12 12 12
4 5 7 8 8 8 9 10 10 11 11 11 11 12 12 13 13 12 12 12 12 11 11 11 10 10 10 10 10 10 10 10 10 9 8 7 8 10 11 11 11 11 11
4 4 6 7 7 8 9 9 9 10 10 10 11 11 12 12 12 12 12 11 11 11 10 10 9 9 9 9 9 9 9 9 8 7 7 7 8 10 10 10 10 9 10
5 4 4 6 6 7 9 9 9 10 10 10 10 10 11 12 12 11 11 11 10 10 10 9 8 8 8 8 8 8 8 7 7 6 6 6 8 8 8 8 8 8 8
5 4 4 4 5 6 7 8 8 9 10 9 9 10 11 11 11 10 10 10 9 9 9 8 8 7 7 7 7 7 7 6 6 5 5 6 7 7 7 7 7 7 7
4 3 3 3 3 4 6 7 8 8 9 9 9 10 10 10 10 10 9 9 9 8 8 7 7 6 6 6 7 7 6 6 5 4 4 5 6 6 6 6 6 6 6
4 3 2 2 2 3 5 6 7 8 9 10 9 10 10 8 8 8 8 9 8 8 7 6 6 5 5 5 5 6 5 5 5 4 4 4 5 5 5 6 6 5 5
2 1 2 2 2 3 4 5 5 6 7 8 8 8 8 8 7 7 8 8 8 7 6 5 4 4 5 5 4 5 5 5 4 3 3 4 4 5 5 6 5 5 4
2 1 1 1 2 3 3 4 4 5 6 6 7 7 7 7 6 6 6 6 6 6 4 4 3 3 3 3 4 4 4 4 3 3 3 3 3 4 5 5 5 5 4
2 1 1 1 2 3 3 3 4 4 5 5 6 7 7 5 4 4 4 4 4 3 3 3 2 2 2 3 3 3 3 3 3 2 2 3 3 3 4 5 5 4 4
1 1 1 2 2 2 3 3 4 4 4 5 5 6 6 5 4 4 4 4 3 3 2 2 1 1 2 2 2 2 2 3 3 2 3 3 3 3 4 5 5 5 4
1 1 0 2 2 3 3 3 3 4 5 5 5 5 6 5 4 4 3 3 2 2 2 2 1 1 1 1 1 1 2 3 3 3 3 3 2 3 4 5 5 4 4
2 2 1 2 2 2 3 3 4 4 5 5 5 6 6 6 5 4 3 2 2 2 2 2 2 2 1 1 0 1 1 2 3 4 4 3 2 2 4 5 5 5 5
2 2 2 2 2 2 2 3 3 4 4 4 5 6 7 6 6 5 3 2 3 3 2 2 1 1 1 0 0 1 1 2 3 4 4 4 4 2 3 5 5 5 5
3 3 2 2 2 2 2 3 3 4 4 4 4 5 6 6 6 5 3 2 3 3 2 1 1 1 0 0 1 0 1 1 2 3 3 3 4 3 3 4 4 5 5
2 3 3 2 2 2 2 2 2 3 3 3 3 4 5 5 6 5 4 3 3 2 1 1 1 1 0 1 0 1 1 1 1 2 2 3 2 3 3 3 3 5 5
2 3 3 2 2 2 1 1 1 1 1 1 2 3 4 4 6 5 3 3 3 2 2 2 1 1 1 1 1 1 2 1 1 1 1 2 1 1 2 2 3 3 3
2 2 3 2 2 1 1 1 1 2 1 1 2 2 3 4 4 4 4 3 3 2 2 2 2 1 1 1 1 1 1 3 2 1 0 0 0 1 1 1 1 2 3
2 2 2 1 2 2 2 2 3 3 2 2 1 0 1 3 3 3 3 3 3 3 3 2 3 2 1 0 1 2 1 2 3 2 1 1 1 1 1 1 1 2 2
1 1 2 2 2 2 2 3 3 3 2 1 1 1 1 2 3 3 3 3 2 2 3 3 2 2 2 1 1 0 0 1 1 2 2 2 2 2 2 1 2 2 2
2 2 2 2 2 2 2 2 3 2 2 1 1 1 1 1 2 2 2 2 2 2 2 2 2 2 2 3 2 1 0 1 0 1 3 3 3 3 2 2 2 2 3
2 2 2 2 2 2 2 2 2 2 2 2 1 1 0 0 1 2 2 1 1 1 2 2 3 3 3 2 2 2 2 1 1 1 2 3 4 4 3 3 2 3 3
Wind_Direction
181 178 153 138 128 124 123 121 118 115 113 112 111 112 111 109 107 106 105 103 102 101 101 99 96 94 92 92 91 90 90 88 87 87 87 89 91 91 88 86 85 83 86
171 169 149 139 134 131 125 124 121 119 115 114 114 114 113 110 108 108 107 105 104 104 102 101 100 98 95 93 93 92 91 91 89 86 84 85 90 92 92 90 90 90 89
131 148 144 137 132 130 127 126 124 123 120 118 118 117 115 113 111 109 109 106 105 104 103 102 101 99 98 97 95 94 94 93 94 88 83 83 91 95 96 94 94 94 93
129 134 139 136 134 131 128 129 129 128 126 123 123 122 119 117 116 114 112 109 108 106 105 103 101 100 98 97 95 95 96 95 95 89 81 83 93 99 98 97 97 97 95
119 131 135 134 135 133 131 127 132 131 129 127 127 126 125 121 120 120 118 116 114 111 109 107 105 102 100 98 96 96 96 95 95 90 85 86 96 102 99 99 99 98 98
104 121 136 132 137 134 133 130 132 133 133 132 131 131 127 124 122 120 117 117 117 115 114 112 109 104 101 100 98 95 96 94 89 90 89 94 103 106 104 102 101 100 99
102 96 129 130 136 138 139 135 136 137 135 136 135 135 130 127 124 121 118 116 116 119 119 118 113 107 105 105 101 97 95 94 89 91 91 101 112 112 110 108 105 105 103
114 100 113 131 130 138 141 140 140 142 139 139 136 137 134 130 127 125 123 118 118 119 120 119 115 108 106 109 104 99 98 96 96 95 96 108 120 118 116 114 112 114 111
99 98 91 112 130 140 140 140 140 145 143 140 137 138 134 131 130 129 126 123 121 121 121 116 113 108 105 109 107 98 96 101 96 98 107 118 126 125 121 116 115 118 122
80 75 80 93 120 133 143 142 141 139 141 138 132 133 135 134 134 132 128 125 123 121 122 120 115 104 98 104 107 101 100 99 97 101 115 131 138 137 133 131 123 118 124
78 60 57 71 107 120 137 146 141 139 140 133 129 131 131 128 129 133 130 126 123 121 122 119 113 103 90 96 104 104 99 102 111 112 128 144 154 155 147 140 135 131 126
99 71 55 64 84 109 124 132 129 127 130 126 122 124 122 121 122 128 130 128 126 123 122 116 107 98 84 85 92 97 101 105 109 117 132 139 156 164 155 146 142 144 144
155 130 80 80 83 96 96 111 110 109 112 115 119 121 122 117 116 116 116 119 118 117 109 105 92 84 77 82 91 97 106 106 107 115 135 134 148 163 162 150 145 146 145
126 131 114 86 90 89 97 106 113 109 109 110 118 120 120 117 113 114 109 109 106 106 98 95 85 67 71 90 111 109 111 117 123 127 141 144 162 175 182 173 168 168 175
119 96 138 100 104 104 98 105 110 112 115 116 116 118 119 120 127 120 117 115 107 110 111 102 80 79 78 80 107 122 130 142 146 159 162 160 171 192 195 189 184 183 188
148 143 76 100 115 114 114 116 109 122 124 120 117 121 122 123 127 129 128 123 117 125 131 131 131 119 123 107 108 128 164 165 167 166 165 171 186 211 211 206 198 192 198
165 154 126 128 94 101 113 119 116 120 129 127 128 126 126 126 129 130 134 133 137 138 123 104 94 88 85 81 89 175 163 169 163 163 166 162 175 216 229 224 216 215 218
132 129 119 115 91 86 96 105 113 118 125 131 131 130 132 133 132 130 138 144 142 131 120 120 111 87 78 69 340 284 176 163 169 171 169 172 177 196 221 225 227 232 229
120 121 108 101 109 107 105 106 103 105 107 125 129 132 140 140 140 134 137 138 133 122 117 137 102 110 98 340 271 268 249 196 186 178 181 187 187 193 212 231 236 241 235
113 108 100 86 85 96 97 83 81 82 85 100 118 128 139 139 138 132 127 121 123 126 126 120 107 66 116 224 267 340 304 264 177 189 199 192 194 208 215 223 241 249 231
96 92 93 90 76 89 88 112 123 135 135 124 97 109 119 132 138 130 124 120 128 151 152 136 116 91 37 35 59 4 340 328 271 238 196 175 191 218 216 210 223 230 240
124 103 92 87 91 104 92 128 143 151 128 112 90 86 125 118 132 140 133 145 147 148 138 133 110 106 59 65 100 80 334 322 327 312 302 184 193 181 219 218 217 227 237
85 105 118 103 95 81 70 82 85 73 63 56 51 82 77 124 127 122 125 132 148 154 163 172 160 146 161 273 80 131 164 242 297 300 313 306 333 318 267 232 240 250 242
98 72 101 109 94 78 86 102 114 127 137 193 194 168 59 79 94 105 121 125 150 165 174 186 174 178 163 187 266 289 183 167 201 292 306 323 314 282 278 282 259 257 254
102 94 73 71 69 67 89 102 118 128 141 119 84 86 70 39 60 72 89 108 156 181 187 191 185 183 186 186 187 198 282 3 87 211 285 309 309 288 275 261 251 245 262
72 73 78 71 47 54 87 101 110 134 139 119 96 114 80 350 3 32 60 67 191 199 196 210 206 196 204 198 196 185 174 181 221 207 256 283 288 292 290 270 258 254 267
Height
1519 1520 1521 1522 1522 1522 1523 1524 1525 1526 1526 1527 1528 1528 1529 1530 1530 1531 1531 1531 1532 1532 1532 1533 1533 1533 1534 1534 1534 1535 1535 1535 1535 1535 1535 1535 1536 1536 1536 1536 1536 1536 1536
1517 1519 1521 1521 1522 1522 1523 1524 1525 1526 1527 1527 1528 1529 1530 1530 1531 1531 1532 1532 1532 1533 1533 1533 1534 1534 1535 1535 1535 1535 1536 1536 1536 1536 1537 1537 1537 1537 1537 1537 1537 1538 1538
1517 1519 1520 1521 1522 1522 1523 1524 1524 1526 1527 1528 1528 1529 1530 1531 1531 1532 1532 1533 1533 1534 1534 1534 1535 1535 1535 1536 1536 1536 1537 1537 1537 1537 1538 1538 1538 1538 1538 1539 1539 1539 1539
1517 1518 1520 1521 1522 1522 1523 1523 1524 1525 1526 1528 1529 1529 1530 1531 1532 1532 1532 1533 1534 1534 1535 1535 1535 1536 1536 1536 1537 1537 1537 1538 1538 1538 1539 1539 1539 1539 1540 1540 1540 1540 1540
1516 1517 1519 1520 1521 1522 1522 1523 1524 1525 1526 1528 1529 1530 1530 1531 1532 1532 1533 1533 1534 1535 1535 1535 1536 1536 1537 1537 1537 1538 1538 1539 1539 1539 1539 1540 1540 1540 1541 1541 1541 1541 1541
1516 1517 1518 1519 1520 1521 1522 1523 1524 1525 1526 1527 1528 1529 1530 1531 1532 1533 1533 1534 1534 1535 1535 1536 1536 1537 1537 1537 1538 1538 1539 1539 1539 1540 1540 1540 1541 1541 1541 1541 1541 1542 1542
1515 1516 1517 1518 1519 1520 1521 1522 1523 1524 1526 1527 1528 1529 1530 1531 1532 1532 1533 1534 1534 1535 1535 1536 1536 1537 1537 1538 1538 1539 1539 1539 1540 1540 1540 1541 1541 1542 1542 1542 1542 1542 1542
1514 1515 1516 1518 1518 1519 1520 1521 1523 1524 1525 1526 1527 1528 1530 1531 1532 1532 1533 1534 1534 1535 1536 1536 1536 1537 1537 1538 1538 1538 1539 1539 1540 1540 1540 1541 1542 1542 1542 1542 1542 1542 1542
1514 1515 1516 1516 1517 1519 1519 1520 1522 1523 1524 1525 1527 1528 1529 1530 1531 1532 1533 1533 1534 1535 1535 1536 1536 1536 1537 1537 1538 1538 1539 1539 1539 1540 1540 1541 1541 1542 1542 1542 1542 1542 1542
1513 1514 1514 1515 1516 1517 1518 1520 1521 1522 1523 1525 1526 1527 1528 1529 1530 1531 1532 1533 1534 1534 1535 1535 1536 1536 1536 1537 1537 1538 1538 1538 1539 1539 1540 1540 1541 1541 1541 1541 1541 1541 1541
1512 1512 1513 1514 1515 1516 1517 1518 1520 1521 1522 1524 1525 1526 1527 1528 1529 1530 1531 1532 1533 1534 1534 1535 1535 1535 1536 1536 1537 1537 1537 1538 1538 1538 1539 1539 1540 1540 1540 1540 1541 1541 1541
1509 1511 1511 1512 1513 1514 1515 1517 1518 1519 1521 1522 1523 1524 1525 1527 1528 1529 1530 1531 1532 1533 1533 1534 1534 1535 1535 1535 1536 1536 1536 1537 1537 1537 1538 1538 1539 1539 1539 1539 1539 1539 1540
1508 1509 1510 1511 1511 1512 1514 1515 1516 1518 1519 1520 1522 1523 1524 1525 1527 1528 1529 1530 1531 1531 1532 1532 1533 1533 1534 1534 1534 1535 1535 1535 1536 1536 1536 1537 1537 1537 1538 1538 1538 1538 1538
1507 1507 1508 1509 1509 1511 1512 1513 1514 1516 1517 1518 1520 1521 1522 1524 1525 1526 1527 1528 1529 1530 1530 1531 1531 1532 1532 1533 1533 1533 1533 1534 1534 1534 1534 1535 1535 1536 1536 1536 1536 1536 1537
1505 1505 1506 1507 1508 1509 1510 1511 1513 1514 1515 1516 1518 1519 1520 1522 1523 1524 1525 1527 1527 1528 1529 1529 1530 1530 1530 1531 1531 1532 1532 1532 1532 1532 1532 1533 1533 1533 1534 1534 1534 1534 1535
1504 1504 1505 1506 1506 1507 1508 1510 1511 1512 1513 1515 1516 1517 1518 1520 1521 1522 1524 1525 1525 1526 1527 1527 1528 1528 1528 1529 1529 1530 1530 1530 1530 1530 1530 1530 1531 1531 1531 1532 1532 1532 1533
1503 1503 1503 1504 1504 1505 1506 1507 1508 1510 1511 1512 1513 1515 1517 1518 1519 1521 1522 1522 1523 1524 1525 1525 1526 1526 1526 1527 1527 1527 1527 1527 1527 1528 1528 1528 1528 1528 1529 1529 1530 1530 1530
1501 1501 1502 1502 1502 1503 1504 1505 1506 1507 1508 1510 1511 1513 1515 1516 1517 1519 1519 1520 1521 1522 1522 1523 1523 1523 1524 1524 1524 1525 1525 1525 1525 1525 1525 1525 1526 1526 1526 1526 1527 1527 1527
1499 1499 1500 1500 1501 1501 1502 1503 1504 1505 1506 1507 1509 1511 1512 1513 1515 1516 1517 1518 1519 1519 1520 1520 1520 1521 1521 1521 1522 1522 1522 1522 1522 1522 1522 1523 1523 1523 1523 1523 1524 1524 1524
1498 1498 1498 1499 1500 1500 1500 1500 1502 1503 1504 1505 1506 1508 1510 1511 1512 1514 1515 1516 1516 1517 1517 1518 1518 1519 1519 1519 1519 1519 1519 1519 1519 1519 1519 1519 1519 1519 1519 1520 1520 1521 1521
1496 1496 1496 1497 1497 1498 1498 1498 1499 1500 1501 1503 1504 1505 1507 1508 1510 1511 1512 1513 1514 1514 1515 1515 1515 1516 1516 1516 1516 1516 1517 1517 1516 1516 1516 1516 1516 1516 1516 1516 1517 1517 1517
1494 1494 1495 1495 1495 1496 1496 1497 1498 1498 1499 1501 1502 1503 1505 1506 1507 1508 1509 1510 1511 1512 1512 1512 1512 1512 1513 1514 1514 1513 1514 1515 1513 1513 1513 1513 1513 1513 1513 1513 1513 1514 1514
1492 1492 1493 1494 1494 1494 1495 1495 1496 1497 1497 1499 1500 1501 1502 1503 1504 1505 1506 1507 1507 1508 1509 1509 1509 1509 1510 1511 1511 1512 1512 1511 1510 1510 1510 1510 1510 1510 1510 1509 1510 1510 1510
1490 1492 1493 1493 1493 1493 1494 1494 1494 1495 1495 1496 1497 1498 1499 1500 1501 1502 1503 1503 1504 1505 1506 1506 1506 1507 1507 1507 1508 1509 1510 1509 1509 1507 1507 1507 1507 1507 1507 1507 1507 1507 1507
1490 1491 1491 1492 1492 1492 1493 1493 1493 1493 1494 1495 1496 1496 1496 1498 1498 1499 1500 1500 1501 1502 1502 1503 1503 1504 1504 1504 1505 1505 1506 1506 1506 1505 1504 1504 1504 1504 1503 1503 1503 1503 1503
1489 1489 1490 1490 1491 1491 1491 1491 1491 1492 1492 1492 1493 1493 1494 1495 1495 1496 1497 1498 1498 1499 1499 1500 1500 1500 1501 1501 1501 1502 1502 1503 1503 1502 1501 1501 1500 1500 1500 1500 1500 1500 1499